{"data":{"norad_id":59017,"intl_designator":"2024-036V","name":"STARLINK-31406","alt_names":[],"object_type":"PAYLOAD","status":"ACTIVE","operator":null,"country":"US","launch_date":"2024-02-23","launch_site_code":"AFWTR","launch_vehicle":null,"mission":null,"orbit_class":"UNKNOWN","rcs_meters":null,"size_class":null,"mass_kg":null,"dimensions":null,"purposes":["comms"],"wikipedia_slug":null,"has_3d_model":false,"image_url":null,"decayed_at":null,"tle_current":{"epoch":"2026-09-20T08:18:21.275712Z","epoch_age_seconds":168796,"freshness":"FRESH","line1":"1 59017U 24036V   26263.34607958  .00001065  00000+0  42676-4 0  9998","line2":"2 59017  53.1604 236.3953 0001352  85.7633 274.3524 15.34393018145371","mean_motion":15.34393018,"eccentricity":0.0001352,"inclination_deg":53.1604,"raan_deg":236.3953,"arg_perigee_deg":85.7633,"mean_anomaly_deg":274.3524,"bstar":4.2676e-5,"rev_number":14537,"period_min":93.848185119935,"perigee_km":461.79910785503,"apogee_km":463.64887666734,"semimajor_km":6840.8609922612,"source":"CELESTRAK","updated_at":"2026-09-21T09:00:34.027144Z"}}}